Regional Weather Roundup
Issued by NWS

Home | Current Version | Previous Version | Graphics & Text | Print | Product List | Glossary Off
Versions: 1 2 3 4 5 6 7 8 9 10 11 12 13 14 15 16 17 18 19 20 21 22 23 24 25 26 27 28 29 30 31 32 33 34 35 36 37 38 39 40 41 42 43 44 45 46 47 48 49 50

000
ASUS43 KMPX 161201
RWRMN
WEATHER ROUNDUP FOR MINNESOTA
NATIONAL WEATHER SERVICE TWIN CITIES/CHANHASSEN MN
600 AM CST TUE JAN 16 2018


NOTE: "FAIR" INDICATES FEW OR NO CLOUDS BELOW 12,000 FEET WITH NO
SIGNIFICANT WEATHER AND/OR OBSTRUCTIONS TO VISIBILITY. N/A MEANS
CURRENT SKY AND/OR WEATHER CONDITIONS ARE NOT AVAILABLE.

MNZ060>063-068>070-161300-
   Twin Cities Metro

CITY           SKY/WX    TMP DP  RH WIND       PRES   REMARKS
TWIN CITIES    CLOUDY     1  -2  87 NW10      30.66R WCI -15
6HR MIN TEMP:  -2; 6HR MAX TEMP:   2;

ST PAUL        CLOUDY     2  -3  80 NW12      30.67R WCI -15
CRYSTAL        CLOUDY     0  -6  76 NW12      30.65R WCI -17
BLAINE         CLOUDY     1  -2  85 NW9       30.64R WCI -14
LAKEVILLE      CLOUDY     0  -2  92 NW9       30.64R WCI -16
EDEN PRAIRIE   CLOUDY     1  -4  79 NW8       30.65R WCI -13
6HR MIN TEMP:  -1; 6HR MAX TEMP:   1;

SOUTH ST PAUL  CLOUDY     3  -2  80 NW9       30.65R WCI -12
LAKE ELMO      CLOUDY     3   0  85 NW6       30.63S WCI  -8
$$
MNZ001>005-007-008-013>017-022>024-027-028-161300-
   Northwest Minnesota

CITY           SKY/WX    TMP DP  RH WIND       PRES   REMARKS
BEMIDJI        FAIR     -13 -17  81 W7        30.66F WCI -29
HALLOCK        FAIR     -17 -20  83 S5        30.74F WCI -29
ROSEAU         FAIR     -17 -20  83 SW3       30.70F
WARROAD        FAIR     -18 -24  76 CALM      30.69F
CROOKSTON      FAIR     -17 -24  70 CALM      30.78F
FOSSTON        FAIR     -18 -24  76 CALM      30.70F
DETROIT LAKES  CLOUDY   -13 -18  77 NW6       30.70F HAZE    WCI -27
MOORHEAD       FAIR     -15 -20  76 CALM      30.79F
PARK RAPIDS    FAIR     -15 -21  74 NW6       30.65S WCI -29
MAHNOMEN       CLOUDY   -16 -21  78 NW3       30.72S
$$
MNZ006-009>011-018-025>026-161300-
   North Central Minnesota

CITY           SKY/WX    TMP DP  RH WIND       PRES   REMARKS
BAUDETTE       FAIR     -17 -21  82 W3        30.66F
FLAG ISLAND    FAIR     -15 -20  76 CALM      30.67F
INTL FALLS     CLOUDY    -5  -9  83 W6        30.65S WCI -18
6HR MIN TEMP:  -5; 6HR MAX TEMP:  -1; 6HR PCP: TRACE;

WASKISH        FAIR     -15 -18  84 W5        30.68F WCI -27
BIG FORK       FLURRIES  -6  -9  84 CALM      30.64S
LONGVILLE      CLOUDY    -8 -11  84 NW3       30.65S
GRAND RAPIDS   FLURRIES  -4  -7  87 NW10      30.65S WCI -21
CRANE LAKE     CLOUDY     0  -4  85 W5        30.65F WCI -10
ORR            CLOUDY    -2  -8  78 NW3       30.60S
COOK           CLOUDY    -2  -6  84 W5        30.62R WCI -12
WALKER         FAIR     -12 -16  81 NW6       30.66F WCI -25
$$
MNZ012-019>021-037-161300-
   Northeast Minnesota

CITY           SKY/WX    TMP DP  RH WIND       PRES   REMARKS
DULUTH         FAIR      -3  -5  90 N9        30.56S WCI -19
6HR MIN TEMP:  -3; 6HR MAX TEMP:   4; 6HR PCP: TRACE;

ELY            CLOUDY    -2  -6  84 NW3       30.59S
HIBBING        CLOUDY    -3  -5  90 N10       30.60F WCI -20
EVELETH        FLURRIES  -3  -8  78 N5        30.60S WCI -13
DULUTH HARBOR  CLOUDY     3   0  85 W7        30.65S WCI  -9
TWO HARBORS    FAIR       1  -4  78 NW6       30.56S WCI -10
SILVER BAY     FAIR      -6  -9  84 CALM      30.56S
GRAND MARAIS     N/A      6  -2  69 N15G29    30.57R WCI -12
G MARAIS ARPRT FAIR      -2  -8  78 NW8       30.48S WCI -17
$$
MNZ029>031-032-039>041-046>048-054>057-064-161300-
   West Central Minnesota

CITY           SKY/WX    TMP DP  RH WIND       PRES   REMARKS
FERGUS FALLS   FAIR     -13 -18  77 N10       30.80S WCI -32
WHEATON        CLOUDY   -11 -18  70 NW9       30.80S WCI -29
MORRIS         CLOUDY    -9 -15  77 NW15      30.73S WCI -31
ALEXANDRIA     FAIR     -12 -16  82 NW12      30.68R WCI -32
ELBOW LAKE     FAIR     -12 -16  82 W10       30.74S WCI -31
WADENA         FAIR     -15 -18  84 W6        30.68R WCI -29
GLENWOOD       FAIR     -11 -17  77 NW12      30.69R WCI -31
APPLETON       CLOUDY    -8 -13  77 NW13      30.77R WCI -28
BENSON         CLOUDY    -9 -15  77 N14       30.74S WCI -31
ORTONVILLE     CLOUDY    -9 -15  77 NW12G17   30.76S WCI -29
MADISON        CLOUDY    -6  -9  84 NW14      30.77R WCI -26
WILLMAR        FAIR      -9 -15  77 NW13      30.73R WCI -30
$$
MNZ033>034-036-042>043-049>051-058-059-161300-
   Central Minnesota

CITY           SKY/WX    TMP DP  RH WIND       PRES   REMARKS
ST CLOUD       FAIR      -5  -9  83 NW9       30.67R WCI -22
6HR MIN TEMP:  -5; 6HR MAX TEMP:   0;

SAUK CENTRE      N/A     -8 -12  83 NW10      30.69R WCI -27
PAYNESVILLE    CLOUDY    -8 -11  86 NW7       30.69S WCI -22
AITKIN         FLURRIES  -6  -8  92 NW7       30.63S WCI -20
PINE RIVER     FAIR      -9 -13  84 NW5       30.67S WCI -21
BRAINERD       FAIR      -7 -12  79 NW9       30.66R WCI -24
STAPLES        FAIR     -13 -17  84 W7        30.67S WCI -29
LONG PRAIRIE   CLOUDY    -8 -11  84 W8        30.67R WCI -23
LITTLE FALLS   FAIR      -6 -13  71 NW3       30.68R
LITCHFIELD     FAIR      -8 -11  84 NW10      30.68S WCI -26
BUFFALO        CLOUDY    -2  -6  82 NW8       30.69R WCI -17
MAPLE LAKE     FAIR      -3  -6  87 MISG      30.68R
HUTCHINSON     FAIR      -8 -12  80 W8        30.69R WCI -23
$$
MNZ037-044-045-052-053-161300-
   East Central Minnesota

CITY           SKY/WX    TMP DP  RH WIND       PRES   REMARKS
PRINCETON      FAIR      -6  -9  84 NW5       30.65R WCI -17
MORA           FAIR      -4  -8  84 NW3       30.66R
CAMBRIDGE        N/A     -4 -11  71 NW5       30.66R WCI -15
RUSH CITY      MOCLDY    -2  -5  84 NW3       30.65R
MOOSE LAKE     FAIR       0  -6  78 CALM      30.61S
HINCKLEY       FAIR       0  -4  85 N7        30.63R WCI -13
CLOQUET        FAIR      -2  -8  78 NW10      30.58F WCI -19
MCGREGOR       CLOUDY     0  -4  85 NW12      30.63S WCI -18
$$
MNZ071>073-080-081-089-090-097-098-161300-
   Southwest Minnesota

CITY           SKY/WX    TMP DP  RH WIND       PRES   REMARKS
MONTEVIDEO     CLOUDY    -8 -11  84 N12       30.75S WCI -27
GRANITE FALLS  CLOUDY    -6 -11  78 NW12      30.76S WCI -25
CANBY          CLOUDY    -5 -10  79 NW10      30.76S WCI -23
MARSHALL       LGT SNOW  -7 -12  79 NW17      30.73S WCI -30
REDWOOD FALLS  CLOUDY    -9 -13  83 NW15G21   30.73R WCI -31
OLIVIA         CLOUDY    -8 -13  77 NW15      30.71S WCI -29
PIPESTONE      CLOUDY    -8 -11  84 N12G18    30.65S WCI -27
WINDOM         LGT SNOW  -8 -20  54 NW16      30.66S WCI -30
WORTHINGTON    FLURRIES  -9 -13  83 NW20      30.65F WCI -34
JACKSON        LGT SNOW  -6 -13  71 NW15G29   30.64S WCI -27
SLAYTON        CLOUDY    -9 -13  80 N13G18    30.66S WCI -29
$$
MNZ065>067-074>077-082>085-091>093-161300-
   South Central Minnesota

CITY           SKY/WX    TMP DP  RH WIND       PRES   REMARKS
MANKATO        LGT SNOW  -6 -10  83 NW15      30.67R FOG     WCI -27
NEW ULM        CLOUDY    -8 -13  77 NW14      30.70R WCI -28
ST JAMES       FLURRIES  -8 -11  84 NW16      30.70R WCI -30
FAIRMONT       LGT SNOW  -6 -11  79 NW18      30.67R WCI -29
FARIBAULT      CLOUDY     0  -4  85 NW6       30.63R WCI -12
OWATONNA       CLOUDY    -2  -8  78 W12       30.62R WCI -20
WASECA         CLOUDY    -2  -8  78 NW16      30.65R WCI -23
ALBERT LEA     CLOUDY    -4  -9  77 NW8       30.60R HAZE    WCI -19
$$
MNZ078>079-086>088-094>096-161300-
   Southeast Minnesota

CITY           SKY/WX    TMP DP  RH WIND       PRES   REMARKS
ROCHESTER      CLOUDY     0  -3  87 NW15      30.55R WCI -19
6HR MIN TEMP:   0; 6HR MAX TEMP:   2; 6HR PCP:  0.01;

RED WING       FLURRIES   1  -4  78 W7        30.61S WCI -11
STANTON        CLOUDY     3  -2  80 NW12      30.63R WCI -13
DODGE CENTER   LGT SNOW   0  -4  85 NW17      30.56R WCI -21
WINONA         FAIR       7   1  78 NW8         N/A  WCI  -6
AUSTIN         CLOUDY    -2  -8  78 NW15      30.57R WCI -22
PRESTON        CLOUDY     2  -2  82 N14       30.54R WCI -16
$$
ABBREVIATIONS USED IN REMARKS
   TC - TEMPERATURES IN CELSIUS
  WCI - WIND CHILL INDEX
   HX - HEAT INDEX
  VSB - VISIBILITY
$$




USA.gov is the U.S. government's official web portal to all federal, state and local government web resources and services.